| time (UTC) | temp F | wind direction | speed MPH | gust MPH | rain 1hr in | rain 24hr in | rain mn in | humidity % | barometer mb |
| 20260505060056 | 55 | 143 | 0.0 | 1.0 | 0.00 | 0.00 | 0.00 | 59 | 1015.3 |
| 20260505054536 | 55 | 146 | 0.0 | 2.0 | 0.00 | 0.00 | 0.00 | 60 | 1015.4 |
| 20260505053037 | 54 | 113 | 0.0 | 0.0 | 0.00 | 0.00 | 0.00 | 60 | 1015.6 |
| 20260505051530 | 54 | 113 | 0.0 | 0.0 | 0.00 | 0.00 | 0.00 | 60 | 1015.7 |
| 20260505041513 | 56 | 148 | 0.0 | 0.0 | 0.00 | 0.00 | 0.00 | 56 | 1015.8 |
| 20260505040013 | 56 | 148 | 0.0 | 0.0 | 0.00 | 0.00 | 0.00 | 55 | 1016.0 |
| 20260505034506 | 56 | 148 | 0.0 | 1.0 | 0.00 | 0.00 | 0.00 | 53 | 1015.7 |
| 20260505033004 | 56 | 129 | 0.0 | 0.0 | 0.00 | 0.00 | 0.00 | 54 | 1015.7 |
| 20260505031503 | 55 | 152 | 0.0 | 1.0 | 0.00 | 0.00 | 0.00 | 57 | 1015.8 |
| 20260505030002 | 55 | 110 | 0.0 | 0.0 | 0.00 | 0.00 | 0.00 | 55 | 1015.6 |
| 20260505024601 | 55 | 110 | 0.0 | 0.0 | 0.00 | 0.00 | 0.00 | 54 | 1015.6 |
| 20260505023058 | 56 | 110 | 0.0 | 0.0 | 0.00 | 0.00 | 0.00 | 53 | 1015.6 |
| 20260505021557 | 56 | 110 | 0.0 | 0.0 | 0.00 | 0.00 | 0.00 | 53 | 1015.5 |
| 20260505020100 | 57 | 110 | 0.0 | 0.0 | 0.00 | 0.00 | 0.00 | 51 | 1015.4 |
| 20260505014607 | 59 | 110 | 0.0 | 0.0 | 0.00 | 0.00 | 0.00 | 47 | 1015.3 |
| 20260505013054 | 60 | 110 | 0.0 | 0.0 | 0.00 | 0.00 | 0.00 | 44 | 1015.1 |
| 20260505011550 | 60 | 110 | 0.0 | 1.0 | 0.00 | 0.00 | 0.00 | 45 | 1015.0 |
| 20260505010054 | 60 | 126 | 0.0 | 0.0 | 0.00 | 0.00 | 0.00 | 44 | 1014.8 |
| 20260505004647 | 62 | 126 | 0.0 | 0.0 | 0.00 | 0.00 | 0.00 | 40 | 1014.5 |
| 20260505003056 | 64 | 126 | 0.0 | 0.0 | 0.00 | 0.00 | 0.00 | 35 | 1014.3 |
| 20260505001545 | 67 | 126 | 0.0 | 0.0 | 0.00 | 0.00 | 0.00 | 33 | 1014.3 |
| 20260505000042 | 70 | 126 | 0.0 | 1.0 | 0.00 | 0.00 | 0.00 | 26 | 1014.2 |
| 20260504234540 | 73 | 239 | 0.0 | 3.0 | 0.00 | 0.00 | 0.00 | 23 | 1014.1 |
| 20260504233038 | 75 | 105 | 0.0 | 2.0 | 0.00 | 0.00 | 0.00 | 22 | 1014.0 |
| 20260504231536 | 76 | 129 | 0.0 | 4.0 | 0.00 | 0.00 | 0.00 | 19 | 1013.9 |
| 20260504230034 | 76 | 126 | 1.0 | 5.0 | 0.00 | 0.00 | 0.00 | 18 | 1014.0 |
| 20260504224531 | 76 | 168 | 1.0 | 7.0 | 0.00 | 0.00 | 0.00 | 19 | 1014.0 |
| 20260504223032 | 77 | 113 | 2.0 | 8.0 | 0.00 | 0.00 | 0.00 | 20 | 1014.0 |
| 20260504221528 | 78 | 169 | 1.0 | 8.0 | 0.00 | 0.00 | 0.00 | 21 | 1013.9 |
| 20260504220028 | 79 | 161 | 2.0 | 7.0 | 0.00 | 0.00 | 0.00 | 20 | 1013.9 |
| 20260504214523 | 80 | 198 | 1.0 | 9.0 | 0.00 | 0.00 | 0.00 | 19 | 1013.7 |
| 20260504213025 | 80 | 52 | 1.0 | 8.0 | 0.00 | 0.00 | 0.00 | 14 | 1013.9 |
| 20260504211529 | 80 | 153 | 3.0 | 0.0 | 0.00 | 0.00 | 0.00 | 13 | 1014.0 |
| 20260504210016 | 80 | 146 | 3.0 | 12.0 | 0.00 | 0.00 | 0.00 | 17 | 1014.0 |
| 20260504204513 | 80 | 115 | 3.0 | 9.0 | 0.00 | 0.00 | 0.00 | 16 | 1013.9 |
| 20260504203008 | 80 | 129 | 2.0 | 6.0 | 0.00 | 0.00 | 0.00 | 16 | 1014.0 |
| 20260504201504 | 80 | 174 | 1.0 | 8.0 | 0.00 | 0.00 | 0.00 | 17 | 1014.1 |
| 20260504200101 | 80 | 75 | 2.0 | 6.0 | 0.00 | 0.00 | 0.00 | 16 | 1014.3 |
| 20260504194559 | 79 | 129 | 1.0 | 11.0 | 0.00 | 0.00 | 0.00 | 17 | 1014.5 |
| 20260504193105 | 79 | 185 | 3.0 | 11.0 | 0.00 | 0.00 | 0.00 | 15 | 1014.8 |
| 20260504191607 | 79 | 251 | 0.0 | 6.0 | 0.00 | 0.00 | 0.00 | 11 | 1015.0 |
| 20260504190054 | 79 | 323 | 2.0 | 7.0 | 0.00 | 0.00 | 0.00 | 15 | 1015.2 |
| 20260504184548 | 79 | 245 | 1.0 | 6.0 | 0.00 | 0.00 | 0.00 | 15 | 1015.4 |
| 20260504183035 | 77 | 356 | 2.0 | 8.0 | 0.00 | 0.00 | 0.00 | 18 | 1015.6 |
| 20260504181535 | 77 | 131 | 1.0 | 5.0 | 0.00 | 0.00 | 0.00 | 17 | 1015.8 |
| 20260504180030 | 77 | 148 | 1.0 | 8.0 | 0.00 | 0.00 | 0.00 | 17 | 1015.7 |
| 20260504174525 | 76 | 103 | 0.0 | 3.0 | 0.00 | 0.00 | 0.00 | 23 | 1015.9 |
| 20260504173021 | 76 | 179 | 1.0 | 6.0 | 0.00 | 0.00 | 0.00 | 22 | 1016.0 |
| 20260504171517 | 75 | 26 | 1.0 | 7.0 | 0.00 | 0.00 | 0.00 | 21 | 1016.0 |
| 20260504081507 | 42 | 149 | 0.0 | 0.0 | 0.00 | 0.00 | 0.00 | 70 | 1017.0 |